Phoenix-Mesa Gateway Airport, AZ

8:28 AM MST on May 25, 2018 (GMT -0700)
Phoenix-Mesa Gateway Airport

Weather History for KIWA - November, 2012

Change the Weather History Date:

Friday, November 2, 2012

  Actual Average Record
Temperature  
Mean Temperature 70 °F -  
Max Temperature 84 °F 76 °F 93 °F (1999)
Min Temperature 57 °F 52 °F 44 °F (2000)
Cooling Degree Days 6    
Growing Degree Days 20 (Base 50)    
Moisture  
Dew Point 28 °F    
Average Humidity 27    
Maximum Humidity 36    
Minimum Humidity 12    
Precipitation  
Precipitation 0.00 in - - ()
Sea Level Pressure  
Sea Level Pressure 29.92 in    
Wind  
Wind Speed 5 mph (ESE)    
Max Wind Speed 9 mph    
Max Gust Speed -    
Visibility 11 miles    
Events      
Averages and records for this station are not official NWS values.
T = Trace of Precipitation, MM = Missing Value Source: NWS Daily Summary

Daily Weather History Graph

Daily Weather History Graph

Search for Another Location

Airport or City:

Astronomy

Nov. 02, 2012 Rise Set
Actual Time 6:46 AM MST 5:33 PM MST
Civil Twilight 6:20 AM MST 5:59 PM MST
Nautical Twilight 5:51 AM MST 6:28 PM MST
Astronomical Twilight 5:22 AM MST 6:57 PM MST
Moon 8:29 PM MST (11/2) 10:03 AM MST (11/2)
Length of Visible Light 11h 38m
Length of Day
10h 46m
Waning Gibbous, 86% of the Moon is Illuminated
Nov 2
Waning Gibbous
Nov 6
Last Quarter
Nov 13
New
Nov 20
First Quarter
Nov 28
Full

Hourly Weather History & Observations

Time (MST) Temp. Dew Point Humidity Pressure Visibility Wind Dir Wind Speed Gust Speed Precip Events Conditions
12:15 AM 57.2 °F 23.0 °F 27% 29.92 in 10.0 mi ESE 6.9 mph - N/A   Clear
12:35 AM 57.2 °F 24.8 °F 29% 29.92 in 10.0 mi ESE 5.8 mph - N/A   Clear
12:55 AM 57.2 °F 26.6 °F 31% 29.92 in 10.0 mi ESE 6.9 mph - N/A   Clear
1:15 AM 57.2 °F 24.8 °F 29% 29.92 in 10.0 mi ESE 6.9 mph - N/A   Clear
1:35 AM 57.2 °F 26.6 °F 31% 29.92 in 10.0 mi ESE 6.9 mph - N/A   Clear
1:55 AM 57.2 °F 23.0 °F 27% 29.92 in 10.0 mi East 6.9 mph - N/A   Clear
2:15 AM 59.0 °F 23.0 °F 25% 29.91 in 10.0 mi East 8.1 mph - N/A   Clear
2:35 AM 59.0 °F 23.0 °F 25% 29.92 in 10.0 mi ESE 5.8 mph - N/A   Clear
2:55 AM 57.2 °F 26.6 °F 31% 29.91 in 10.0 mi ESE 6.9 mph - N/A   Clear
3:15 AM 57.2 °F 28.4 °F 33% 29.91 in 10.0 mi ESE 6.9 mph - N/A   Clear
3:35 AM 57.2 °F 28.4 °F 33% 29.91 in 10.0 mi SE 8.1 mph - N/A   Clear
3:55 AM 57.2 °F 30.2 °F 36% 29.92 in 10.0 mi East 3.5 mph - N/A   Clear
4:15 AM 57.2 °F 28.4 °F 33% 29.92 in 10.0 mi East 4.6 mph - N/A   Clear
4:35 AM 57.2 °F 26.6 °F 31% 29.92 in 10.0 mi East 5.8 mph - N/A   Clear
4:55 AM 57.2 °F 26.6 °F 31% 29.92 in 10.0 mi East 8.1 mph - N/A   Clear
5:15 AM 57.2 °F 26.6 °F 31% 29.92 in 10.0 mi East 9.2 mph - N/A   Clear
5:47 AM 57.2 °F 24.8 °F 29% 29.92 in 20.0 mi East 5.8 mph - N/A   Partly Cloudy
7:48 AM 60.8 °F 28.4 °F 29% 29.96 in 30.0 mi East 4.6 mph - N/A   Mostly Cloudy
8:47 AM 64.4 °F 28.4 °F 26% 29.97 in 35.0 mi ESE 5.8 mph - N/A   Mostly Cloudy
9:47 AM 66.2 °F 30.2 °F 26% 29.98 in 35.0 mi ESE 4.6 mph - N/A   Mostly Cloudy
10:47 AM 73.4 °F 30.2 °F 20% 29.97 in 35.0 mi NNW 4.6 mph - N/A   Mostly Cloudy
11:47 AM 78.8 °F 28.4 °F 16% 29.96 in 35.0 mi Calm Calm - N/A   Scattered Clouds
12:55 PM 80.6 °F 26.6 °F 14% 29.93 in 35.0 mi WNW 4.6 mph - N/A   Scattered Clouds
1:50 PM 80.6 °F 26.6 °F 14% 29.90 in 35.0 mi WNW 4.6 mph - N/A   Scattered Clouds
2:47 PM 82.4 °F 26.6 °F 13% 29.89 in 30.0 mi West 4.6 mph - N/A   Scattered Clouds
3:47 PM 84.2 °F 26.6 °F 12% 29.88 in 30.0 mi WNW 4.6 mph - N/A   Partly Cloudy
4:47 PM 84.2 °F 26.6 °F 12% 29.98 in 30.0 mi WNW 6.9 mph - N/A   Clear
5:47 PM 78.8 °F 26.6 °F 15% 29.88 in 20.0 mi WNW 5.8 mph - N/A   Clear
6:47 PM 77.0 °F 28.4 °F 17% 29.90 in 20.0 mi WNW 3.5 mph - N/A   Clear
7:47 PM 64.4 °F 32.0 °F 30% 29.90 in 20.0 mi Calm Calm - N/A   Clear
7:55 PM 64.4 °F 32.0 °F 30% 29.90 in 7.0 mi Calm Calm - N/A   Clear
8:15 PM 66.2 °F 32.0 °F 28% 29.91 in 10.0 mi ESE 3.5 mph - N/A   Clear
8:35 PM 66.2 °F 32.0 °F 28% 29.91 in 10.0 mi ESE 3.5 mph - N/A   Clear
8:47 PM 66.2 °F 30.2 °F 26% 29.91 in 20.0 mi Calm Calm - N/A   Clear
8:55 PM 64.4 °F 30.2 °F 28% 29.92 in 10.0 mi SE 3.5 mph - N/A   Clear
9:15 PM 62.6 °F 32.0 °F 32% 29.92 in 10.0 mi SE 4.6 mph - N/A   Clear
9:35 PM 64.4 °F 32.0 °F 30% 29.93 in 10.0 mi SE 4.6 mph - N/A   Clear
9:55 PM 62.6 °F 32.0 °F 32% 29.93 in 10.0 mi SSE 3.5 mph - N/A   Clear
10:15 PM 64.4 °F 32.0 °F 30% 29.93 in 10.0 mi Calm Calm - N/A   Clear
10:35 PM 62.6 °F 32.0 °F 32% 29.93 in 10.0 mi Calm Calm - N/A   Clear
10:55 PM 62.6 °F 32.0 °F 32% 29.94 in 10.0 mi Calm Calm - N/A   Clear
11:15 PM 62.6 °F 30.2 °F 30% 29.94 in 10.0 mi ESE 4.6 mph - N/A   Clear
11:35 PM 59.0 °F 32.0 °F 36% 29.94 in 10.0 mi ESE 4.6 mph - N/A   Clear
11:55 PM 60.8 °F 32.0 °F 34% 29.95 in 10.0 mi ESE 5.8 mph - N/A   Clear